Probability
0 0 0 0 0 0 0 0 0 0 0 0 0 0 0 0 0 0 0 0 0 0 0 0 0 0 0 0 0 0 0 0 0 0 0 0 0 0 0 0 0 0 0 0
0 0 0 0 0 0 0 0 0 0 0 0 0 0 0 0 0 0 0 0 0 0 0 0 0 0 0 0 0 0 0 0 0 0 0 0 0 0 0 0 0 0 0 0
0 0 0 0 0 0 0 0 0 0 0 0 0 0 0 0 0 0 0 0 0 0 0 0 0 0 0 0 0 0 0 0 0 0 0 0 0 0 0 0 0 0 0 0
0 0 0 0 0 0 0 0 0 0 0 0 0 0 0 0 0 0 0 0 0 0 0 0 0 0 0 0 0 0 0 0 0 0 0 0 0 0 0 0 0 0 0 0
0 0 0 0 0 0 0 0 0 0 0 0 0 0 0 0 0 0 0 0 0 0 0 0 0 0 0 0 0 0 0 0 0 0 0 0 0 0 0 0 0 0 0 0
0 0 0 0 0 0 0 0 0 0 0 0 0 0 0 0 0 0 0 0 0 0 0 0 0 0 0 0 0 0 0 0 0 0 0 0 0 0 0 0 0 0 0 0
0 0 0 0 0 0 0 0 0 0 0 0 0 0 0 0 0 0 0 0 0 0 0 0 0 0 0 0 0 0 0 0 0 0 0 0 0 0 0 0 0 0 0 0
0 0 0 0 0 0 0 0 0 0 0 0 0 0 0 0 0 0 0 0 0 0 0 0 0 0 0 0 0 0 0 0 0 0 0 0 0 0 0 0 0 0 0 0
0 0 0 0 0 0 0 0 0 0 0 0 0 0 0 0 0 0 0 0 0 0 0 0 0 0 0 0 0 0 0 0 0 0 0 0 0 0 0 0 0 0 0 0
0 0 0 0 0 0 0 0 0 0 0 0 0 0 0 0 0 0 0 0 0 0 0 0 0 0 0 0 0 0 0 0 0 0 0 0 0 0 0 0 0 0 0 0
0 0 0 0 0 0 0 0 0 0 0 0 0 0 0 0 0 0 0 0 0 0 0 0 0 0 0 0 0 0 0 0 0 0 0 0 0 0 0 0 0 0 0 0
0 0 0 0 0 0 0 0 0 0 0 0 0 0 0 0 0 0 0 0 0 0 0 0 0 0 0 0 0 0 0 0 0 0 0 0 0 0 0 0 0 0 0 0
0 0 0 0 0 0 0 0 0 0 0 0 0 0 0 0 0 0 0 0 0 0 0 0 0 0 0 0 0 0 0 0 0 0 0 0 0 0 0 0 0 0 0 0
0 0 0 0 0 0 0 0 0 0 0 0 0 0 0 0 0 0 0 0 0 0 0 0 0 0 0 0 0 0 0 0 0 0 0 0 0 0 0 0 0 0 0 0
0 0 0 0 0 0 0 0 0 0 0 0 0 0 0 0 0 0 0 0 0 0 0 0 0 0 0 0 0 0 0 0 0 0 0 0 0 0 0 0 0 0 0 0
0 0 0 0 0 0 0 0 0 0 0 0 0 0 0 0 0 0 0 0 0 0 0 0 0 0 0 0 0 0 0 0 0 0 0 0 0 0 0 0 0 0 0 0
0 0 0 0 0 0 0 0 0 0 0 0 0 0 0 0 0 0 0 0 0 0 0 0 0 0 0 0 0 0 0 0 0 0 0 0 0 0 0 0 0 0 0 0
0 0 0 0 0 0 0 0 0 0 0 0 0 0 0 0 0 0 0 0 0 0 0 0 0 0 0 0 0 0 0 0 0 0 0 0 0 0 0 0 0 0 0 0
0 0 0 0 0 0 0 0 0 0 0 0 0 0 0 0 0 0 0 0 0 0 0 0 0 0 0 0 0 0 0 0 0 0 0 0 0 0 0 0 0 0 0 0
0 0 0 0 0 0 0 0 0 0 0 0 0 0 0 0 0 0 0 0 0 0 0 0 0 0 0 0 0 0 0 0 0 0 0 0 0 0 0 0 0 0 0 0
0 0 0 0 0 0 0 0 0 0 0 0 0 0 0 0 0 0 0 0 0 0 0 0 0 0 0 0 0 0 0 0 0 0 0 0 0 0 0 0 0 0 0 0
0 0 0 0 0 0 0 0 0 0 0 0 0 0 0 0 0 0 0 0 0 0 0 0 0 0 0 0 0 0 0 0 0 0 0 0 0 0 0 0 0 0 0 0
0 0 0 0 0 0 0 0 0 0 0 0 0 0 0 0 0 0 0 0 0 0 0 0 0 0 0 0 0 0 0 0 0 0 0 0 0 0 0 0 0 0 0 0
0 0 0 0 0 0 0 0 0 0 0 0 0 0 0 0 0 0 0 0 0 0 0 0 0 0 0 0 0 0 0 0 0 0 0 0 0 0 0 0 0 0 0 0
0 0 0 0 0 0 0 0 0 0 0 0 0 0 0 0 0 0 0 0 0 0 0 0 0 0 0 0 0 0 0 0 0 0 0 0 0 0 0 0 0 0 0 0
0 0 0 0 0 0 0 0 0 0 0 0 0 0 0 0 0 0 0 0 0 0 0 0 0 0 0 0 0 0 0 0 0 0 0 0 0 0 0 0 0 0 0 0
0 0 0 0 0 0 0 0 0 0 0 0 0 0 0 0 0 0 0 0 0 0 0 0 0 0 0 0 0 0 0 0 0 0 0 0 0 0 0 0 0 0 0 0
Wind_Speed
7 6 5 7 9 10 13 12 11 11 11 9 6 5 4 3 2 2 1 1 1 2 2 2 2 2 1 1 1 2 2 2 2 2 2 2 3 3 4 4 5 5 6 6
6 6 6 8 9 11 13 14 15 13 13 8 6 4 4 4 3 3 3 2 2 2 2 2 2 1 1 1 1 1 1 1 1 1 2 2 3 3 4 5 5 5 6 6
5 4 5 9 9 10 10 10 11 13 10 4 4 4 5 4 4 4 4 3 2 2 2 2 2 2 1 1 1 1 1 1 1 1 2 2 3 3 4 5 5 6 6 7
3 3 8 3 1 5 8 7 7 7 6 4 5 5 5 5 5 4 3 2 2 1 1 1 1 1 1 1 0 0 0 1 2 2 2 3 3 4 5 5 5 6 6 7
3 5 7 3 2 3 6 6 4 6 6 5 4 3 2 1 2 2 2 2 1 1 1 1 0 0 1 1 1 0 1 2 2 2 3 3 4 5 5 5 6 6 6 7
4 5 6 1 1 2 3 4 2 3 4 2 1 3 1 2 2 2 2 1 1 1 1 1 1 0 0 1 0 1 1 2 3 3 3 4 4 5 5 5 6 6 6 7
7 7 5 2 1 2 4 2 2 2 2 1 2 3 3 2 1 2 2 2 2 2 1 1 1 0 0 0 1 1 2 2 3 3 3 4 4 5 5 5 6 7 7 7
6 7 5 2 2 3 2 3 2 2 2 1 2 2 1 1 1 2 3 3 3 2 2 2 2 1 1 1 2 2 2 2 3 3 3 4 4 5 5 6 6 7 7 8
5 4 2 1 2 1 2 2 3 3 2 1 1 2 2 1 2 2 3 2 2 2 3 3 3 2 2 3 2 2 2 3 3 3 3 4 4 5 5 5 5 5 6 7
4 5 3 3 3 2 2 2 2 2 2 1 1 2 2 2 2 2 3 3 3 3 3 3 4 3 3 3 3 3 3 3 3 3 4 4 4 4 4 4 5 5 6 7
6 5 3 3 2 2 1 1 2 2 2 1 1 1 1 1 2 2 2 2 2 2 3 4 4 4 4 4 3 3 3 3 4 4 4 4 4 4 5 5 5 6 6 6
5 3 3 2 2 1 0 1 1 1 2 2 1 1 1 1 2 2 2 2 2 3 3 4 4 4 4 4 4 3 3 3 3 3 3 4 4 4 5 6 8 9 10 10
4 3 2 1 2 2 1 1 1 1 1 1 2 2 1 1 2 2 2 3 3 4 4 4 4 4 4 4 4 4 4 4 3 3 4 4 4 5 6 5 6 8 9 11
3 1 1 0 1 2 2 2 2 2 2 2 2 2 2 2 2 2 3 4 4 4 4 4 4 4 5 4 4 4 4 4 4 4 4 4 4 5 5 6 7 6 7 10
2 1 0 1 1 2 2 2 2 2 2 2 2 2 2 2 3 3 3 4 3 3 3 4 4 5 5 5 4 4 4 3 3 4 4 4 4 4 5 6 6 7 7 7
1 1 2 1 1 1 2 1 1 2 2 3 3 3 3 3 3 3 3 3 3 4 4 4 5 5 5 5 4 4 3 5 5 4 4 4 4 4 5 5 6 6 6 7
0 0 0 1 1 1 2 2 1 2 2 3 3 3 3 3 3 3 3 4 4 4 5 5 5 5 5 4 4 3 3 4 5 4 4 4 4 5 5 5 5 6 6 7
1 1 1 1 1 1 2 2 2 2 3 3 3 3 3 3 3 4 4 4 4 4 4 4 5 5 5 4 4 3 3 3 3 4 4 4 5 5 5 5 6 6 6 6
2 1 1 1 1 1 1 2 2 2 2 2 2 2 3 3 4 4 4 4 4 5 5 5 7 6 5 5 5 3 3 4 4 4 4 5 5 5 5 5 5 6 6 6
2 2 1 1 1 1 1 2 2 2 2 2 2 3 3 4 4 4 4 4 4 4 6 6 6 5 5 4 5 3 4 4 4 4 4 5 5 5 5 5 5 6 6 5
2 2 2 2 2 2 2 2 2 2 3 2 3 3 4 4 4 4 4 4 4 5 5 7 5 4 4 4 5 4 4 4 4 4 5 5 5 5 5 5 5 5 5 5
1 1 2 2 2 2 3 2 2 3 3 3 3 3 4 4 4 4 4 4 5 7 5 4 4 5 5 6 4 4 4 4 4 4 4 5 5 5 5 5 5 5 5 5
1 2 2 2 2 3 3 3 3 3 3 3 3 4 4 4 4 4 4 4 4 7 5 4 6 8 8 5 3 4 4 4 5 4 4 5 5 5 5 5 5 5 5 5
2 2 2 2 2 2 3 3 3 3 3 4 3 4 4 4 3 3 4 6 8 8 5 6 9 9 7 3 4 4 4 4 4 4 5 5 5 5 5 5 5 5 5 6
2 1 1 1 2 2 2 3 3 3 3 3 3 3 3 3 3 4 4 5 7 7 5 6 8 8 5 4 4 4 4 4 5 5 5 5 5 5 5 5 5 5 5 5
1 2 2 2 2 2 2 2 2 3 3 3 3 3 3 3 3 4 4 5 6 6 5 4 5 5 4 4 4 5 5 5 5 5 5 5 5 5 5 5 6 5 5 5
1 1 1 1 1 2 2 2 3 3 3 3 4 4 4 4 4 4 4 4 4 4 4 4 4 4 4 4 4 4 4 4 4 4 4 5 5 4 5 6 5 5 5 5
Wind_Direction
266 272 240 239 234 223 223 230 240 250 252 259 266 269 276 279 279 278 281 282 261 242 221 198 187 178 168 161 170 179 190 210 237 259 273 281 287 293 296 292 287 285 284 281
252 248 255 260 250 235 234 240 246 255 262 272 280 281 274 270 272 267 273 275 265 251 236 222 213 204 187 182 188 196 203 232 257 268 281 289 296 300 301 299 298 296 292 288
250 258 265 253 242 231 231 235 239 247 263 290 284 280 277 273 265 264 268 269 268 254 232 225 221 225 225 230 203 181 215 264 282 291 298 302 307 306 305 303 302 298 293 292
243 219 235 253 332 241 241 247 250 263 276 283 292 295 281 270 269 272 273 266 275 288 286 267 248 244 238 207 151 126 345 332 320 311 308 306 306 306 306 302 299 298 299 296
218 238 261 263 265 238 232 251 269 267 280 298 318 296 274 291 291 283 276 285 303 326 329 332 314 283 221 172 156 179 323 327 326 318 309 309 308 307 308 306 302 302 302 300
214 235 249 285 340 284 224 251 325 278 279 311 314 259 291 10 334 346 6 15 28 34 30 22 15 350 187 181 189 277 308 313 315 311 307 306 307 307 309 305 301 303 301 302
223 239 260 342 339 181 214 301 1 304 288 252 258 304 335 333 343 22 36 37 35 25 12 9 10 6 232 259 282 301 304 303 306 307 305 304 304 304 306 305 302 302 303 304
213 226 241 64 145 202 312 353 334 325 311 282 313 345 348 339 15 42 45 42 31 19 6 5 359 314 275 293 307 311 302 298 303 308 308 302 301 303 304 303 302 303 304 306
219 237 339 194 223 306 331 305 325 332 342 353 347 344 357 6 19 28 30 24 15 12 5 5 358 334 309 319 324 311 302 300 301 303 303 301 299 301 303 302 300 303 305 306
243 255 265 264 283 306 309 314 338 354 4 10 353 347 358 14 15 13 14 17 8 358 356 352 348 337 323 322 317 305 302 303 303 303 304 303 301 298 297 298 300 301 303 303
249 266 270 257 267 301 349 22 33 35 23 11 14 342 346 351 354 2 6 359 355 344 338 335 335 331 329 326 314 304 303 304 302 300 301 303 300 298 295 291 297 299 300 300
250 253 250 274 349 343 10 24 27 38 29 29 19 356 357 354 354 354 348 344 344 337 331 328 329 327 330 329 316 306 302 302 301 302 303 301 301 301 296 290 302 302 302 303
280 292 277 303 18 21 20 7 20 32 26 10 1 352 343 338 337 337 332 328 325 324 320 320 322 324 329 329 318 307 302 303 302 300 301 303 304 304 306 306 301 303 309 312
313 296 221 310 354 13 35 41 44 47 40 21 360 354 353 344 335 332 329 326 321 318 317 316 316 320 327 324 313 305 303 304 302 300 300 298 299 301 303 308 311 311 313 315
340 345 137 60 48 46 50 64 59 41 24 13 4 357 352 343 333 328 328 326 322 321 322 321 319 321 327 320 311 307 304 303 302 300 298 297 299 300 300 300 302 307 312 317
3 77 102 92 51 34 35 36 26 354 350 347 347 343 336 328 323 325 327 328 322 320 321 317 313 317 320 315 310 306 303 306 306 302 300 300 300 299 299 299 302 305 310 317
239 268 27 338 332 340 344 339 329 318 322 324 327 330 330 326 320 322 327 328 319 310 308 307 309 313 312 311 307 303 302 302 306 303 299 299 299 297 297 299 301 303 307 318
316 277 266 263 272 290 316 328 327 322 315 313 319 322 321 318 314 315 318 320 317 314 315 316 314 310 309 312 307 299 296 298 300 300 299 298 297 296 298 298 301 303 308 315
40 37 20 357 322 289 291 308 316 319 318 315 310 307 304 300 300 302 306 307 307 309 319 326 321 316 310 311 308 298 297 297 298 297 296 297 297 295 296 297 300 303 306 311
28 20 10 1 354 333 311 315 316 314 312 307 302 300 301 304 304 301 300 295 296 300 306 311 312 307 304 304 308 299 294 293 297 299 300 297 296 297 298 298 299 301 304 307
1 357 351 348 343 335 319 308 304 306 311 305 291 290 295 300 302 297 293 296 307 311 306 308 307 302 301 304 303 293 291 292 293 294 294 295 296 296 296 297 299 301 303 306
329 330 327 327 327 326 327 322 310 303 304 303 298 293 293 296 299 295 284 283 298 308 310 304 301 305 309 303 293 290 290 290 289 289 289 290 291 293 294 296 297 299 300 303
308 306 308 313 312 312 319 319 312 300 296 295 292 291 291 291 292 292 297 300 302 307 309 300 306 310 312 308 299 294 291 288 287 288 288 287 287 288 290 292 293 294 297 300
303 307 309 313 311 309 318 324 323 313 302 294 286 283 285 291 294 290 287 296 304 307 302 300 306 312 317 308 298 295 292 289 287 285 285 284 285 286 287 288 290 292 294 297
301 302 298 300 309 311 312 317 319 315 312 306 305 302 292 284 284 294 297 295 298 304 301 302 310 317 315 299 294 291 289 286 287 287 284 285 286 286 286 286 287 289 291 293
302 296 294 293 289 290 295 301 305 309 313 313 314 315 312 305 295 293 293 295 297 301 302 299 302 306 298 292 290 289 286 288 289 286 284 283 282 282 283 286 289 288 289 291
301 303 301 303 303 296 294 294 294 299 301 299 303 306 307 306 304 305 304 301 301 300 298 297 297 295 292 291 289 287 283 282 281 281 281 279 279 280 282 283 285 287 287 288